Temp
48 48 47 47 48 49 48 48 49 51 52 53 55 57 57 56 57 55 55 55 55 54 54 54 54 55 53 52 51 49 49 50 48 50 48 49 48 48 49 50 50 50 50
50 49 48 49 47 46 46 47 49 48 50 51 53 55 56 56 56 55 54 54 53 52 52 53 53 53 51 50 49 50 50 50 47 46 47 47 47 48 49 48 48 50 49
47 47 47 47 46 45 45 46 47 48 49 51 52 53 55 56 55 54 54 53 52 52 51 52 51 51 49 49 49 47 49 49 48 47 44 46 46 47 47 49 48 48 50
46 46 45 46 46 46 47 46 47 48 48 49 51 52 54 54 54 53 53 52 52 53 51 51 51 51 49 49 47 48 48 47 47 46 44 44 45 47 47 46 46 48 47
45 44 44 45 46 46 46 45 47 49 50 51 52 53 53 52 52 51 51 51 51 50 50 51 52 53 53 51 47 47 46 44 45 44 43 44 44 44 44 44 44 44 47
44 44 45 45 46 46 47 47 48 49 49 49 48 49 48 50 49 49 51 49 50 49 50 50 50 50 50 50 51 50 49 46 44 46 44 44 44 44 45 44 44 43 41
45 45 45 45 46 46 47 47 47 47 47 46 46 47 47 47 47 46 48 49 48 48 48 47 47 48 49 49 49 49 49 48 49 45 44 44 44 46 45 45 45 45 45
44 45 46 45 45 47 47 46 46 45 47 46 46 46 46 46 46 45 46 49 49 48 47 47 46 47 48 48 49 47 47 48 48 49 46 46 47 48 46 46 46 46 48
44 44 44 45 45 45 44 45 45 45 45 44 44 44 44 44 45 45 46 47 47 46 47 47 47 47 45 44 47 47 48 49 51 50 48 46 44 45 48 50 47 45 45
43 44 46 46 45 44 44 44 44 44 43 44 44 44 45 44 43 44 46 46 45 45 46 47 46 46 43 43 48 49 47 49 50 50 51 49 47 48 48 49 47 44 43
44 44 45 45 44 44 44 43 43 43 43 43 43 43 44 44 43 43 44 45 44 45 46 45 46 43 42 42 42 46 46 49 49 50 49 49 49 49 49 47 47 47 42
43 43 43 44 44 44 43 43 43 43 42 42 42 42 43 44 44 43 43 44 46 46 46 47 47 42 42 42 44 41 41 45 50 49 48 47 46 47 47 48 47 46 47
42 42 42 43 43 43 42 42 42 42 41 40 40 40 40 42 42 42 42 42 45 47 48 46 43 42 43 45 43 42 44 49 48 47 45 46 45 46 47 47 48 49 48
42 41 42 42 42 42 43 43 42 40 40 39 39 39 40 40 41 42 45 47 46 47 46 46 44 44 44 45 46 47 47 47 46 46 46 47 48 47 44 48 45 45 44
42 41 41 41 40 40 40 39 40 41 40 39 40 39 39 40 40 41 43 46 46 43 45 46 45 45 45 46 46 46 46 47 46 46 46 45 45 46 45 47 44 44 43
40 39 39 38 38 38 38 38 40 40 40 39 38 40 43 40 40 40 40 39 39 40 43 42 42 43 43 43 44 45 46 45 43 44 44 44 44 44 43 44 44 42 40
38 38 38 38 38 37 38 38 37 42 42 41 39 39 39 38 39 39 39 39 38 42 42 41 41 41 42 42 43 44 44 43 43 44 45 45 44 43 42 41 42 41 40
40 40 38 38 39 39 40 40 41 41 40 41 42 40 39 39 39 38 39 42 42 41 40 40 40 40 40 41 42 42 44 45 44 44 43 44 43 42 41 40 40 40 39
42 40 40 40 40 41 41 41 41 41 41 40 43 42 41 39 39 38 39 41 40 40 40 40 40 40 40 41 41 42 43 43 43 44 43 43 43 42 40 40 40 37 37
43 41 40 42 41 41 42 42 42 41 41 41 41 40 41 42 40 40 40 40 40 40 40 40 40 40 40 41 41 41 42 42 42 43 44 43 42 42 40 39 39 39 39
43 43 40 43 42 42 42 42 42 42 41 40 40 38 31 41 39 39 39 39 39 39 39 40 40 40 40 41 41 41 42 42 41 42 43 42 41 40 41 40 40 40 39
43 44 44 44 44 44 43 43 43 43 43 42 42 41 34 41 40 40 40 39 40 40 40 40 41 40 40 40 39 40 40 41 41 41 42 42 40 40 40 40 40 39 39
46 46 46 45 45 42 44 44 44 44 44 43 44 43 42 41 41 40 40 40 40 40 40 40 40 40 41 40 40 39 38 38 39 40 43 40 39 39 40 39 38 38 38
48 48 47 46 46 45 45 44 44 41 45 44 44 43 42 42 41 40 41 41 41 41 41 41 40 40 40 40 40 41 39 39 41 43 44 40 39 39 40 39 39 38 39
48 47 47 47 47 46 45 45 45 45 46 45 45 43 42 43 42 42 42 42 42 42 41 41 41 40 40 39 39 39 35 33 39 35 44 41 40 40 40 39 39 39 39
49 48 47 47 47 46 46 46 46 45 46 46 44 44 44 44 43 43 43 43 42 42 42 41 41 41 40 40 38 33 32 32 37 34 43 42 40 40 39 39 39 38 39
MSLP
1020.81 1020.27 1019.86 1019.46 1019.08 1018.72 1018.33 1017.86 1017.40 1016.82 1016.26 1015.72 1015.26 1014.82 1014.51 1014.45 1014.43 1014.53 1014.58 1014.66 1014.57 1014.78 1014.79 1014.87 1014.60 1014.17 1013.95 1013.92 1013.86 1013.55 1013.39 1013.01 1012.40 1012.10 1012.25 1012.27 1012.14 1012.16 1012.24 1012.03 1011.78 1011.57 1011.18
1020.97 1020.51 1020.07 1019.56 1019.12 1018.63 1018.11 1017.59 1017.08 1016.56 1016.04 1015.59 1015.08 1014.65 1014.32 1014.10 1014.11 1014.12 1014.33 1014.58 1014.62 1014.72 1014.68 1014.34 1014.42 1013.83 1013.79 1013.91 1013.55 1013.19 1013.04 1012.92 1012.82 1012.49 1012.48 1012.49 1012.42 1012.42 1012.31 1012.02 1011.80 1011.63 1011.36
1021.09 1020.58 1020.07 1019.51 1019.05 1018.62 1018.12 1017.53 1016.87 1016.26 1015.67 1015.15 1014.76 1014.37 1014.02 1013.89 1013.93 1014.08 1014.32 1014.37 1014.61 1014.44 1014.25 1014.21 1014.01 1013.81 1013.79 1013.68 1013.36 1013.18 1013.15 1013.02 1012.94 1012.73 1012.74 1012.68 1012.69 1012.62 1012.29 1012.09 1011.83 1011.59 1011.34
1020.95 1020.46 1019.97 1019.43 1018.96 1018.46 1017.84 1017.34 1016.73 1016.08 1015.45 1014.86 1014.40 1014.06 1013.87 1014.00 1014.14 1014.20 1014.20 1014.13 1014.05 1013.95 1013.89 1013.99 1013.66 1013.78 1013.76 1013.65 1013.48 1013.35 1013.22 1013.14 1013.14 1013.05 1012.93 1012.88 1012.99 1012.69 1012.55 1012.34 1011.79 1011.63 1011.44
1020.66 1020.15 1019.64 1019.16 1018.67 1018.08 1017.49 1016.97 1016.42 1015.92 1015.44 1014.91 1014.35 1013.98 1013.95 1014.06 1014.18 1013.79 1013.77 1013.97 1013.92 1013.79 1013.63 1013.74 1013.75 1013.69 1013.63 1013.78 1013.64 1013.41 1013.30 1013.34 1013.60 1013.31 1013.02 1013.22 1013.12 1012.82 1012.69 1012.40 1012.03 1011.83 1011.65
1020.22 1019.69 1019.28 1018.84 1018.39 1017.83 1017.23 1016.69 1016.11 1015.77 1015.47 1015.20 1014.95 1014.65 1014.33 1014.13 1014.07 1013.85 1013.85 1013.71 1013.49 1013.66 1013.65 1013.81 1013.86 1014.04 1014.07 1013.87 1013.91 1013.63 1013.60 1013.71 1013.83 1013.28 1013.47 1013.56 1013.34 1013.12 1012.83 1012.39 1012.11 1011.84 1011.78
1020.01 1019.53 1019.14 1018.74 1018.24 1017.77 1017.26 1016.74 1016.37 1016.06 1015.77 1015.51 1015.24 1014.87 1014.51 1014.25 1014.04 1013.86 1013.64 1013.45 1013.51 1013.64 1013.68 1014.06 1014.43 1014.68 1014.40 1014.52 1014.16 1014.09 1013.93 1013.89 1013.80 1013.68 1013.69 1013.76 1013.54 1013.18 1012.85 1012.36 1012.01 1011.91 1011.71
1020.20 1019.67 1019.23 1018.80 1018.34 1017.78 1017.33 1017.00 1016.69 1016.39 1016.11 1015.93 1015.67 1015.35 1014.98 1014.68 1014.15 1013.64 1013.33 1013.28 1013.29 1013.63 1014.24 1014.82 1015.02 1015.11 1015.02 1014.74 1014.55 1014.41 1014.23 1014.02 1013.68 1013.51 1013.61 1013.59 1013.47 1013.10 1012.73 1012.42 1012.21 1011.80 1011.54
1020.41 1019.88 1019.38 1018.96 1018.57 1018.16 1017.80 1017.41 1017.07 1016.80 1016.61 1016.45 1016.12 1015.74 1015.31 1014.98 1014.46 1013.98 1013.67 1013.69 1014.17 1014.74 1015.07 1015.29 1015.43 1015.30 1014.96 1014.78 1014.63 1014.32 1013.95 1013.63 1013.51 1013.39 1013.34 1013.37 1013.25 1012.87 1012.49 1012.20 1012.07 1011.81 1011.58
1020.58 1019.97 1019.46 1018.91 1018.58 1018.43 1018.19 1017.95 1017.78 1017.45 1017.19 1016.96 1016.74 1016.50 1016.18 1015.84 1015.42 1014.94 1014.68 1014.74 1015.25 1015.53 1015.76 1015.81 1015.61 1015.36 1015.00 1014.47 1014.24 1013.98 1013.78 1013.61 1013.51 1013.34 1013.30 1013.22 1012.98 1012.77 1012.56 1012.49 1012.34 1012.08 1012.05
1021.12 1020.58 1020.06 1019.62 1019.32 1019.13 1018.93 1018.64 1018.39 1018.11 1017.87 1017.71 1017.49 1017.34 1017.02 1016.80 1016.56 1016.19 1015.96 1015.98 1016.20 1016.22 1016.13 1015.99 1015.62 1015.17 1014.78 1014.44 1014.17 1013.97 1013.68 1013.49 1013.51 1013.51 1013.42 1013.27 1013.08 1012.92 1012.68 1012.54 1012.49 1012.32 1012.32
1021.54 1021.10 1020.72 1020.38 1020.08 1019.84 1019.60 1019.41 1019.15 1018.89 1018.69 1018.55 1018.33 1017.94 1017.83 1017.64 1017.33 1017.00 1016.74 1016.60 1016.49 1016.37 1016.29 1016.08 1015.86 1015.46 1015.21 1014.92 1014.49 1014.03 1013.41 1013.35 1013.60 1013.54 1013.59 1013.54 1013.35 1013.11 1012.83 1012.53 1012.51 1012.53 1012.46
1022.00 1021.68 1021.41 1021.17 1020.86 1020.55 1020.33 1020.22 1020.03 1019.83 1019.78 1019.63 1019.39 1019.07 1018.56 1018.20 1017.80 1017.42 1017.11 1016.91 1016.74 1016.73 1016.69 1016.51 1016.30 1016.03 1015.66 1015.30 1015.02 1014.47 1014.07 1014.01 1013.97 1013.98 1014.03 1013.95 1013.92 1013.57 1013.07 1012.70 1012.45 1012.36 1012.33
1022.52 1022.39 1022.15 1021.86 1021.71 1021.36 1021.23 1021.14 1021.03 1020.87 1020.60 1020.36 1020.05 1019.74 1019.27 1018.74 1018.49 1018.13 1017.83 1017.58 1017.36 1017.29 1017.20 1017.13 1016.91 1016.61 1016.34 1016.10 1015.62 1015.33 1015.12 1014.94 1014.82 1014.67 1014.46 1014.28 1013.97 1013.58 1013.33 1013.02 1012.73 1012.52 1012.33
1023.25 1023.23 1023.07 1022.91 1022.66 1022.45 1022.33 1022.14 1021.85 1021.56 1021.32 1020.88 1020.57 1020.35 1019.91 1019.62 1019.58 1018.99 1018.45 1018.41 1018.28 1018.19 1017.85 1017.73 1017.62 1017.40 1017.10 1016.77 1016.46 1016.25 1015.96 1015.61 1015.34 1015.24 1014.89 1014.54 1014.26 1013.91 1013.58 1013.30 1013.05 1012.82 1012.59
1024.02 1024.04 1023.92 1023.69 1023.48 1023.26 1022.83 1022.45 1022.21 1021.94 1021.41 1020.97 1020.75 1020.58 1020.57 1020.49 1020.10 1019.44 1019.23 1019.14 1019.01 1018.65 1018.78 1018.92 1018.81 1018.54 1018.22 1017.91 1017.49 1017.00 1016.63 1016.36 1016.18 1015.76 1015.35 1014.98 1014.57 1014.19 1013.90 1013.58 1013.33 1013.09 1012.94
1024.77 1024.54 1024.37 1024.11 1023.82 1023.59 1023.24 1022.99 1022.74 1022.35 1021.99 1021.79 1021.66 1021.44 1021.25 1021.00 1020.62 1020.46 1020.23 1019.92 1019.83 1019.57 1019.93 1019.91 1019.74 1019.47 1019.12 1018.75 1018.31 1017.83 1017.32 1016.94 1016.56 1016.12 1015.64 1015.22 1014.88 1014.53 1014.20 1013.92 1013.61 1013.33 1013.12
1025.14 1025.02 1024.88 1024.60 1024.20 1023.83 1023.62 1023.48 1023.16 1023.02 1022.96 1022.80 1022.55 1022.37 1022.14 1021.70 1021.46 1021.30 1021.11 1020.49 1020.92 1020.95 1020.89 1020.77 1020.56 1020.22 1019.85 1019.44 1018.96 1018.50 1017.89 1017.31 1016.91 1016.48 1016.06 1015.62 1015.20 1014.88 1014.52 1014.22 1013.90 1013.61 1013.34
1025.28 1025.20 1025.00 1024.68 1024.35 1024.15 1024.01 1023.90 1023.76 1023.65 1023.68 1023.64 1023.34 1023.05 1022.92 1022.65 1022.31 1022.26 1022.07 1022.10 1022.12 1021.99 1021.75 1021.47 1021.28 1020.87 1020.44 1019.99 1019.53 1018.98 1018.49 1017.99 1017.49 1016.82 1016.37 1015.91 1015.52 1015.17 1014.84 1014.55 1014.22 1013.95 1013.65
1025.26 1025.21 1024.98 1024.88 1024.79 1024.61 1024.50 1024.33 1024.29 1024.23 1024.20 1024.19 1024.16 1024.13 1023.81 1023.29 1023.21 1023.28 1023.22 1023.10 1022.90 1022.73 1022.51 1022.13 1021.82 1021.42 1020.98 1020.50 1020.00 1019.49 1018.90 1018.42 1017.95 1017.39 1016.76 1016.23 1015.78 1015.42 1015.12 1014.81 1014.48 1014.17 1013.88
1025.32 1025.23 1025.11 1025.05 1025.10 1025.11 1025.04 1024.95 1024.91 1024.80 1024.82 1024.81 1024.86 1024.85 1024.51 1024.20 1024.30 1024.25 1024.08 1023.90 1023.69 1023.40 1023.10 1022.74 1022.32 1021.92 1021.50 1021.02 1020.49 1019.97 1019.42 1018.91 1018.50 1017.99 1017.36 1016.73 1016.20 1015.72 1015.40 1015.06 1014.72 1014.38 1014.14
1025.38 1025.35 1025.30 1025.34 1025.39 1025.37 1025.42 1025.46 1025.43 1025.33 1025.36 1025.29 1025.28 1025.25 1025.05 1024.91 1024.88 1024.75 1024.62 1024.42 1024.19 1023.96 1023.66 1023.27 1022.78 1022.44 1022.11 1021.61 1021.15 1020.56 1020.00 1019.42 1018.90 1018.43 1017.80 1017.15 1016.66 1016.14 1015.72 1015.27 1014.92 1014.59 1014.35
1025.48 1025.52 1025.52 1025.54 1025.57 1025.66 1025.67 1025.74 1025.75 1025.72 1025.68 1025.70 1025.64 1025.58 1025.54 1025.47 1025.39 1025.25 1025.08 1024.88 1024.62 1024.31 1024.02 1023.63 1023.23 1022.74 1022.37 1021.98 1021.59 1021.17 1020.66 1020.10 1019.57 1018.97 1018.14 1017.53 1016.98 1016.47 1015.96 1015.51 1015.16 1014.86 1014.69
1025.29 1025.37 1025.46 1025.58 1025.60 1025.73 1025.84 1025.91 1025.99 1026.00 1025.95 1025.98 1026.01 1026.04 1025.99 1025.94 1025.86 1025.77 1025.58 1025.36 1025.08 1024.83 1024.53 1024.16 1023.85 1023.43 1022.89 1022.32 1021.88 1021.46 1021.09 1020.58 1019.83 1019.04 1018.36 1017.85 1017.29 1016.69 1016.18 1015.76 1015.41 1015.11 1014.95
1025.20 1025.33 1025.39 1025.47 1025.59 1025.77 1025.96 1026.04 1026.04 1026.07 1026.09 1026.15 1026.19 1026.25 1026.29 1026.24 1026.15 1026.03 1025.92 1025.74 1025.53 1025.24 1025.00 1024.67 1024.29 1023.84 1023.36 1022.91 1022.40 1021.92 1021.46 1020.85 1020.14 1019.53 1018.66 1018.15 1017.67 1017.15 1016.63 1016.20 1015.81 1015.46 1015.24
1025.24 1025.37 1025.48 1025.62 1025.75 1025.88 1025.96 1026.03 1026.15 1026.21 1026.18 1026.22 1026.33 1026.42 1026.41 1026.38 1026.36 1026.28 1026.19 1026.02 1025.81 1025.64 1025.45 1025.16 1024.77 1024.30 1023.76 1023.30 1022.93 1022.43 1021.81 1021.19 1020.57 1019.93 1019.17 1018.62 1018.14 1017.69 1017.16 1016.71 1016.30 1015.98 1015.67
Wind_Speed
12 12 13 13 14 12 10 9 8 8 9 10 9 7 5 6 5 5 5 8 6 5 4 6 8 6 6 6 5 4 6 6 8 1 1 2 2 3 4 3 4 4 5
15 14 15 15 13 12 12 12 10 9 8 8 9 9 7 6 5 5 4 4 3 4 6 6 10 6 7 7 5 5 4 3 3 6 1 2 2 3 3 3 3 3 3
12 12 12 13 10 11 12 12 11 11 10 10 9 9 7 4 1 1 1 3 4 7 5 6 7 7 7 5 4 3 3 2 3 2 0 1 1 1 2 2 2 2 2
12 11 12 12 12 11 11 11 10 10 10 9 9 9 6 1 2 3 3 4 5 6 4 6 4 4 4 4 2 2 1 1 2 1 1 1 1 2 2 2 2 1 2
12 11 11 11 10 10 10 10 9 9 7 7 8 5 3 1 3 5 3 6 7 5 4 4 2 2 6 2 0 2 3 3 2 2 2 1 2 2 2 2 2 3 1
12 11 11 10 10 10 10 9 7 7 5 6 6 6 5 4 7 9 8 7 5 4 5 2 4 5 6 7 6 8 6 4 2 2 3 3 4 2 3 3 2 2 3
12 8 8 9 9 9 9 8 6 6 5 5 6 7 7 7 10 10 10 5 5 4 3 5 6 5 2 2 6 7 8 7 5 2 2 2 4 5 5 5 2 2 2
10 8 8 8 9 9 7 7 8 5 7 6 7 7 7 6 9 8 7 4 1 10 10 6 3 2 5 4 4 4 2 1 1 1 1 3 3 4 2 2 3 5 1
9 9 8 8 8 8 8 7 6 5 5 5 6 7 7 8 13 12 8 9 10 10 6 6 5 4 5 6 5 4 3 2 3 2 2 2 4 5 6 2 4 5 4
11 11 10 8 5 6 7 8 7 5 6 5 8 9 14 10 17 17 13 9 10 6 5 3 3 6 8 7 5 4 5 3 2 2 3 2 4 5 6 4 3 3 3
9 9 10 9 8 8 7 7 7 7 8 8 9 8 10 11 11 14 13 8 5 3 2 3 3 9 8 9 5 3 5 1 1 2 3 4 5 5 5 3 3 3 2
8 8 9 9 8 7 8 8 9 7 8 8 7 7 6 6 11 11 11 7 3 2 5 4 5 12 12 12 9 11 7 6 3 3 5 6 6 6 6 3 2 1 0
8 9 9 9 9 8 8 8 6 8 7 7 6 5 5 5 5 11 10 10 8 5 5 8 13 13 13 12 17 16 10 6 5 5 5 5 4 5 5 2 3 2 1
8 9 8 8 8 8 7 7 6 6 6 5 5 5 5 4 5 5 6 6 9 9 10 8 10 10 12 11 11 11 9 7 7 6 6 5 5 6 4 5 3 5 2
9 8 9 7 8 7 5 4 4 2 4 4 3 3 5 6 6 5 8 6 6 7 7 8 9 8 9 9 9 9 8 8 9 7 7 6 6 5 5 6 4 3 6
7 5 4 4 4 4 4 4 7 8 13 13 9 4 6 9 8 16 17 16 14 11 8 7 7 7 8 8 8 8 8 9 6 5 5 5 6 5 6 5 4 4 5
4 4 3 4 4 4 4 4 4 6 10 19 16 15 15 12 16 14 11 18 18 12 8 7 7 7 7 7 7 7 6 5 4 5 7 7 6 5 5 5 5 5 3
4 6 3 3 4 3 4 4 4 5 5 5 9 12 15 18 19 17 10 13 8 9 7 7 7 7 7 7 7 6 7 8 7 7 6 8 7 6 6 6 5 5 4
3 2 3 3 3 4 4 5 5 5 5 5 5 7 10 11 15 16 14 8 7 7 7 7 6 7 7 7 7 7 7 7 8 8 8 6 6 6 6 5 5 6 6
3 5 5 3 3 3 4 4 5 5 6 6 6 5 5 5 8 8 8 7 7 7 7 7 7 7 7 7 7 7 7 8 8 8 10 7 6 5 5 6 5 5 5
3 3 5 3 4 3 3 4 4 5 5 6 5 5 6 7 6 6 6 7 7 7 7 7 7 7 7 7 7 7 7 7 7 7 9 9 7 6 6 5 5 5 4
1 2 2 3 2 3 3 3 4 4 5 5 4 6 6 6 6 6 6 6 5 5 5 6 6 6 6 7 7 7 8 8 8 7 9 9 6 6 6 5 5 5 4
2 2 2 1 1 2 3 3 3 3 3 4 4 4 5 5 5 5 5 6 6 6 6 7 7 7 7 7 6 6 7 7 7 6 9 7 6 7 6 5 5 4 4
2 2 2 1 1 3 2 3 2 3 3 3 3 4 4 4 5 5 5 5 6 7 7 7 7 10 9 8 8 8 7 7 6 6 9 6 6 8 6 6 5 5 3
2 2 2 3 3 3 2 2 2 2 2 2 2 2 3 3 4 4 4 5 6 7 8 8 8 10 12 13 13 13 11 10 9 8 8 8 9 10 8 6 6 5 4
3 2 3 3 2 2 2 2 2 1 1 1 1 2 2 2 2 3 3 4 5 5 7 7 9 13 14 11 13 12 11 11 10 10 8 7 8 8 8 8 10 5 6
Wind_Direction
332 334 336 330 327 319 312 303 295 302 310 314 310 303 284 273 264 271 258 263 254 271 287 287 287 293 286 286 274 264 256 247 269 293 14 357 1 353 339 337 354 347 345
327 324 321 317 312 312 312 307 306 304 299 298 300 296 289 278 261 257 269 285 288 294 293 305 295 309 303 292 286 286 287 291 278 285 30 354 6 325 303 323 348 352 341
315 312 310 306 299 300 303 304 309 307 303 296 288 285 286 285 36 111 264 291 287 251 259 279 300 315 303 300 304 307 298 298 270 281 40 21 315 319 328 319 324 331 337
308 306 302 305 307 301 302 300 301 299 299 287 281 273 259 118 8 311 282 262 264 267 279 273 267 281 301 313 311 304 355 15 4 74 48 17 313 313 301 313 336 337 337
308 306 305 306 307 302 299 293 290 290 322 333 349 22 63 220 251 246 251 275 265 267 246 261 244 37 35 351 8 56 89 71 356 33 45 343 321 329 318 314 300 315 287
305 304 308 309 308 308 309 309 303 304 329 350 358 346 346 319 308 307 280 258 263 267 271 166 62 46 40 38 60 81 79 62 10 39 25 354 330 296 290 313 292 353 339
323 311 310 314 316 319 317 323 337 355 357 1 359 352 339 333 326 320 307 285 274 260 136 84 53 33 2 66 66 71 54 44 59 141 41 352 328 334 316 322 330 280 276
344 341 334 332 332 337 348 2 359 1 6 7 357 349 346 337 333 319 311 290 99 89 78 89 102 35 31 30 40 34 11 265 106 101 220 279 277 322 304 293 305 301 264
345 337 330 329 332 340 350 342 341 357 12 8 13 10 18 19 28 35 49 77 84 82 74 54 27 344 319 308 298 296 300 298 256 232 81 17 337 351 17 8 16 15 357
346 348 359 357 338 360 11 23 20 17 19 20 38 31 34 36 28 35 53 76 77 62 52 50 358 305 298 292 272 275 283 275 289 12 359 26 13 16 6 30 353 26 1
356 4 15 19 32 28 30 26 25 27 36 41 45 40 34 28 31 38 45 64 79 77 27 336 314 347 22 18 6 308 261 267 57 66 36 21 15 19 7 12 6 51 22
7 15 17 25 30 30 34 32 32 35 44 37 30 13 21 23 30 22 38 64 57 37 14 354 15 24 22 16 16 353 359 143 91 61 42 22 6 356 350 351 73 340 32
23 26 24 28 28 28 35 37 37 31 33 24 21 11 353 358 7 9 13 16 23 49 52 41 29 26 28 28 20 23 39 59 54 47 29 19 357 327 327 358 354 341 346
37 34 26 38 43 24 32 33 36 22 14 12 9 360 341 356 13 11 38 48 46 53 41 38 38 39 41 29 29 26 33 32 37 27 16 4 358 1 356 358 350 354 321
43 40 36 33 30 26 24 17 13 356 348 334 343 349 10 31 6 46 59 51 52 42 60 44 38 34 31 26 31 30 27 29 27 15 8 2 1 356 358 2 353 358 9
36 28 28 32 21 20 6 358 357 11 30 40 48 46 58 36 42 61 60 48 36 38 54 50 42 34 33 25 22 21 23 18 7 355 0 353 353 354 356 355 350 343 2
35 15 11 19 19 21 16 38 55 356 41 45 42 47 51 54 45 40 48 62 41 48 53 42 35 24 16 17 12 13 2 349 337 1 3 359 354 356 355 350 346 344 10
52 44 27 5 1 23 44 53 50 47 46 25 17 37 37 49 47 39 12 54 40 37 44 36 26 17 13 9 4 3 358 3 2 359 357 1 354 354 356 352 347 347 339
62 37 8 358 12 51 62 59 56 55 50 40 15 22 8 27 48 42 42 58 50 39 31 33 22 18 15 10 7 2 0 3 0 4 360 348 354 351 351 347 343 342 337
40 38 21 33 33 48 48 60 56 53 50 43 39 17 357 41 43 41 44 44 43 35 24 24 16 14 9 8 3 2 4 6 0 1 358 347 344 348 347 343 343 342 352
322 4 19 51 55 49 54 55 56 61 61 56 47 26 13 64 54 45 41 37 30 27 21 17 15 12 7 3 3 358 358 360 1 356 358 351 343 347 346 343 340 339 346
355 42 57 67 63 68 67 63 62 70 65 68 58 48 29 59 54 48 39 31 22 20 13 7 12 12 4 358 353 353 353 353 355 352 353 351 341 346 345 344 347 346 355
110 105 90 67 62 90 80 68 68 71 71 63 56 53 45 47 44 37 32 22 20 19 14 13 9 5 0 356 358 356 350 345 336 331 351 346 340 344 340 342 344 351 24
178 185 175 139 119 113 95 87 81 80 81 72 62 54 48 44 44 40 36 33 33 29 23 19 14 11 0 359 359 359 358 347 338 342 350 347 344 345 350 352 356 350 14
154 173 157 142 139 128 121 113 102 82 82 78 68 56 53 60 58 50 43 38 36 32 26 19 14 7 8 6 6 5 355 347 3 345 4 358 354 357 355 359 1 360 11
110 122 129 135 140 157 169 162 144 141 157 139 110 94 90 67 57 47 35 31 28 28 23 18 15 15 12 12 6 359 357 358 359 348 2 5 6 9 359 7 9 11 15